Retour au catalogue

DUMMY MASS 2

ActifSciencePO
NORAD 24926·PAYLOAD·🇨🇳 China

Lancé Sep 1, 1997 depuis Taiyuan Satellite Launch Center

Loading…

Prochains Passages (prochaines 24 heures)

TLE

FraisSource: Space-Track

Époque: Sep 14, 2026, 02:06 UTC

1 24926U 97048B   26257.08773778  .00000233  00000-0  22746-4 0  9993
2 24926  86.3300 286.9695 0007280   7.9735 352.1605 14.87138681572359

Suivez DUMMY MASS 2 en temps réel avec AllMySat

Download on the App Store